Home   Weather   Hampton   Past weeks

Flag for USA Past Weather in Hampton, Virginia, USA — Yesterday and Last 2 Weeks

Now
41 °F

Overcast.


Feels Like: 34 °F
Forecast: 42 / 51 °F
Wind: 14 mph from North

Location: Langley Air Force Base

Current Time: Jan 24, 2017 at 2:38:05 am

Latest Report: Jan 24, 2017 at 1:58 am


Visibility: 10 mi

Pressure: 29.37 "Hg

Humidity: 95%

Dew Point: 40 °F

Location of HamptonLocation

Past Weather in Hampton — Graph

°F

Hampton Temperature Yesterday

Maximum temperature yesterday: 57 °F (at 12:33 pm)
Minimum temperature yesterday: 44 °F (at 11:58 pm)
Average temperature yesterday: 50 °F

High & Low Weather Summary for the Past Weeks

 TemperatureHumidityPressure
High70 °F (Jan 12, 2:58 pm)100% (Jan 10, 10:03 pm)30.84 "Hg (Jan 10, 10:03 pm)
Low13 °F (Jan 10, 1:58 am)33% (Jan 10, 12:58 pm)29.21 "Hg (Jan 23, 1:33 pm)
Average46 °F88%30.08 "Hg
* Reported Jan 9 1:58 am — Jan 24 1:28 am, Hampton, Weather by CustomWeather, © 2017

Note: Actual official high and low records may vary slightly from our data, if they occured in-between our weather recording intervals... More about our weather records

Advertising

Hampton Weather History for the Previous 24 Hours

Scroll right to see more
 ConditionsComfort  
Time TempWeatherWind HumidityBarometerVisibility
1:28 am
Tue, Jan 24
41 °FOvercast.13 mph100%29.35 "Hg10 mi
12:58 am42 °FLow clouds.14 mph97%29.36 "Hg10 mi
11:58 pm
Mon, Jan 23
44 °FLow clouds.14 mph100%29.36 "Hg10 mi
10:58 pm45 °FLow clouds.12 mph99%29.36 "Hg10 mi
10:29 pm46 °FLow clouds.16 mph100%29.32 "Hg10 mi
9:59 pm46 °FLow clouds.14 mph100%29.31 "Hg7 mi
9:58 pm46 °FLight rain. Low clouds.12 mph100%29.33 "Hg7 mi
9:35 pm46 °FLight rain. Fog.15 mph100%29.30 "Hg6 mi
8:58 pm46 °FLight rain. Fog.13 mph100%29.31 "Hg4 mi
8:18 pm46 °FLight rain. Fog.13 mph100%29.28 "Hg5 mi
7:58 pm47 °FLight rain. Fog.15 mph100%29.29 "Hg5 mi
6:58 pm49 °FLight rain. Low clouds.18 mph100%29.29 "Hg7 mi
6:43 pm50 °FFog.18 mph100%29.27 "Hg5 mi
5:58 pm50 °FFog.16 mph100%29.28 "Hg6 mi
5:28 pm50 °FFog.14 mph100%29.26 "Hg6 mi
5:08 pm50 °FFog.14 mph100%29.26 "Hg3 mi
4:58 pm51 °FFog.13 mph100%29.27 "Hg2 mi
4:38 pm52 °FFog.13 mph100%29.25 "Hg3 mi
3:58 pm54 °FFog.9 mph100%29.27 "Hg5 mi
2:58 pm54 °FFog.12 mph100%29.25 "Hg6 mi
2:43 pm54 °FFog.9 mph100%29.24 "Hg2 mi
2:03 pm55 °FLow clouds.6 mph100%29.23 "Hg10 mi
1:33 pm55 °FLow clouds.7 mph100%29.21 "Hg10 mi
12:58 pm56 °FLow clouds.5 mph99%29.24 "Hg10 mi
12:33 pm57 °FLow clouds.7 mph100%29.22 "Hg10 mi
12:13 pm55 °FLow clouds.9 mph100%29.23 "Hg3 mi
11:43 am55 °FFog.6 mph100%29.25 "Hg1 mi
10:58 am53 °FFog.9 mph100%29.29 "Hg1 mi
10:35 am54 °FFog.15 mph100%29.27 "Hg1 mi
9:58 am53 °FLight rain. Low clouds.14 mph100%29.29 "Hg2 mi
9:34 am54 °FLight rain. Fog.14 mph100%29.27 "Hg2 mi
9:16 am54 °FLight rain. Fog.12 mph100%29.27 "Hg1 mi
9:04 am54 °FFog.22 mph100%29.26 "Hg1 mi
8:27 am54 °FFog.24 mph100%29.26 "Hg1 mi
8:14 am54 °FLight rain. Low clouds.22 mph100%29.26 "Hg2 mi
8:08 am54 °FLight rain. Low clouds.24 mph100%29.25 "Hg2 mi
7:58 am53 °FLight rain. Low clouds.22 mph100%29.28 "Hg1 mi
7:43 am52 °FLight rain. Low clouds.20 mph100%29.28 "Hg1 mi
7:23 am52 °FLight rain. Fog.15 mph100%29.29 "Hg6 mi
6:58 am51 °FLight rain. Fog.14 mph100%29.34 "Hg3 mi
6:37 am50 °FFog.15 mph100%29.32 "Hg1 mi
6:21 am50 °FLight rain. Fog.14 mph100%29.32 "Hg1 mi
6:06 am50 °FLight rain. Fog.17 mph100%29.33 "Hg2 mi
5:58 am50 °FFog.16 mph100%29.37 "Hg1 mi
5:33 am50 °FLight rain. Fog.17 mph100%29.34 "Hg1 mi
5:23 am48 °FFog.12 mph100%29.37 "Hg1 mi
5:09 am48 °FLight rain. Fog.12 mph100%29.38 "Hg1 mi
4:38 am50 °FLight rain. Fog.15 mph100%29.39 "Hg1 mi
4:03 am48 °FLight rain. Fog.10 mph100%29.41 "Hg1 mi
3:58 am48 °FLight rain. Fog.10 mph100%29.44 "Hg1 mi
3:15 am48 °FFog.14 mph100%29.40 "Hg1 mi
3:06 am48 °FLight rain. Fog.12 mph100%29.42 "Hg1 mi
2:58 am49 °FLight rain. Fog.12 mph100%29.44 "Hg1 mi
2:35 am48 °FLight rain. Fog.12 mph100%29.43 "Hg1 mi
2:23 am48 °FLight rain. Fog.10 mph100%29.45 "Hg1 mi
Weather by CustomWeather, © 2017

See weather overviewHow to use our weather pages